• In Netherlands
  • List of Countries
  • For 7 days
  • Water Temperature
  • Satellite Maps
  • Weather Map
  • Weather Widgets
  • user-avatar
    Login

    Hourly Weather Ghent

    Today, 21 August, Monday

    Time Temperature Precipitation Wind Pressure Humidity
    00:00 +15°C° 0 mm 2 mps 767 mmHg 78%
    01:00 +15°C° 0.1 mm 2 mps 767 mmHg 80%
    02:00 +15°C° 0.1 mm 2 mps 767 mmHg 83%
    03:00 +14°C° 0.1 mm 2 mps 767 mmHg 85%
    04:00 +14°C° 0.1 mm 2 mps 767 mmHg 85%
    05:00 +15°C° 0.1 mm 2 mps 766 mmHg 86%
    06:00 +15°C° 0.1 mm 2 mps 766 mmHg 86%
    07:00 +16°C° 0 mm 3 mps 766 mmHg 81%
    08:00 +17°C° 0 mm 3 mps 766 mmHg 77%
    09:00 +18°C° 0 mm 3 mps 766 mmHg 72%
    10:00 +19°C° 0 mm 3 mps 766 mmHg 68%
    11:00 +20°C° 0 mm 3 mps 766 mmHg 65%
    12:00 +21°C° 0 mm 3 mps 766 mmHg 61%
    13:00 +21°C° 0 mm 3 mps 766 mmHg 62%
    14:00 +21°C° 0 mm 3 mps 766 mmHg 63%
    15:00 +21°C° 0 mm 2 mps 766 mmHg 64%
    16:00 +21°C° 0 mm 2 mps 765 mmHg 67%
    17:00 +21°C° 0 mm 2 mps 765 mmHg 71%
    18:00 +21°C° 0 mm 1 mps 765 mmHg 74%
    19:00 +20°C° 0 mm 1 mps 765 mmHg 78%
    20:00 +19°C° 0 mm 1 mps 766 mmHg 81%
    21:00 +18°C° 0 mm 1 mps 766 mmHg 85%
    22:00 +16°C° 0 mm 1 mps 766 mmHg 86%
    23:00 +16°C° 0 mm 2 mps 765 mmHg 87%

    Tomorrow, 22 August, Tuesday

    Time Temperature Precipitation Wind Pressure Humidity
    00:00 +16°C° 0 mm 2 mps 765 mmHg 89%
    01:00 +16°C° 0 mm 1 mps 765 mmHg 89%
    02:00 +16°C° 0 mm 1 mps 765 mmHg 89%
    03:00 +16°C° 0 mm 1 mps 765 mmHg 89%
    04:00 +16°C° 0 mm 1 mps 765 mmHg 89%
    05:00 +16°C° 0 mm 1 mps 765 mmHg 88%
    06:00 +18°C° 0 mm 1 mps 765 mmHg 87%
    07:00 +19°C° 0 mm 1 mps 765 mmHg 82%
    08:00 +20°C° 0 mm 1 mps 765 mmHg 78%
    09:00 +22°C° 0 mm 1 mps 765 mmHg 73%
    10:00 +23°C° 0 mm 1 mps 764 mmHg 71%
    11:00 +23°C° 0 mm 1 mps 764 mmHg 68%
    12:00 +24°C° 0 mm 1 mps 764 mmHg 66%
    13:00 +24°C° 0 mm 1 mps 763 mmHg 65%
    14:00 +25°C° 0 mm 1 mps 763 mmHg 64%
    15:00 +25°C° 0 mm 1 mps 763 mmHg 63%
    16:00 +24°C° 0 mm 1 mps 762 mmHg 66%
    17:00 +24°C° 0 mm 1 mps 762 mmHg 69%
    18:00 +23°C° 0 mm 1 mps 762 mmHg 72%
    19:00 +23°C° 0 mm 1 mps 762 mmHg 74%
    20:00 +21°C° 0 mm 2 mps 762 mmHg 76%
    21:00 +20°C° 0 mm 2 mps 762 mmHg 78%
    22:00 +19°C° 0 mm 2 mps 762 mmHg 79%
    23:00 +19°C° 0 mm 2 mps 761 mmHg 80%

    Day after tomorrow, 23 August, Wednesday

    Time Temperature Precipitation Wind Pressure Humidity
    00:00 +18°C° 0 mm 3 mps 761 mmHg 81%
    01:00 +18°C° 0 mm 3 mps 761 mmHg 82%
    02:00 +18°C° 0 mm 3 mps 760 mmHg 82%
    03:00 +17°C° 0 mm 3 mps 760 mmHg 83%
    04:00 +17°C° 0 mm 3 mps 760 mmHg 82%
    05:00 +18°C° 0 mm 3 mps 760 mmHg 81%
    06:00 +18°C° 0 mm 3 mps 759 mmHg 80%
    07:00 +20°C° 0 mm 3 mps 759 mmHg 75%
    08:00 +22°C° 0 mm 3 mps 759 mmHg 69%
    09:00 +25°C° 0 mm 4 mps 759 mmHg 64%
    10:00 +26°C° 0 mm 4 mps 759 mmHg 61%
    11:00 +28°C° 0 mm 4 mps 759 mmHg 59%
    12:00 +29°C° 0 mm 4 mps 758 mmHg 56%
    13:00 +29°C° 0 mm 5 mps 758 mmHg 57%
    14:00 +29°C° 0 mm 5 mps 758 mmHg 58%
    15:00 +29°C° 0 mm 6 mps 758 mmHg 60%
    16:00 +27°C° 0.1 mm 6 mps 758 mmHg 63%
    17:00 +25°C° 0.1 mm 5 mps 759 mmHg 66%
    18:00 +22°C° 0.1 mm 5 mps 759 mmHg 70%
    19:00 +20°C° 0 mm 5 mps 759 mmHg 72%
    20:00 +17°C° 0 mm 5 mps 760 mmHg 75%
    21:00 +16°C° 0 mm 5 mps 760 mmHg 78%
    22:00 +15°C° 0 mm 4 mps 760 mmHg 81%
    23:00 +15°C° 0 mm 4 mps 760 mmHg 84%

    24 August, Thursday

    Time Temperature Precipitation Wind Pressure Humidity
    00:00 +14°C° 0 mm 4 mps 760 mmHg 87%
    01:00 +14°C° 0 mm 4 mps 760 mmHg 89%
    02:00 +14°C° 0 mm 4 mps 760 mmHg 91%
    03:00 +13°C° 0 mm 4 mps 760 mmHg 92%
    04:00 +14°C° 0 mm 4 mps 760 mmHg 91%
    05:00 +14°C° 0 mm 4 mps 760 mmHg 90%
    06:00 +14°C° 0 mm 4 mps 761 mmHg 89%
    07:00 +16°C° 0 mm 5 mps 761 mmHg 82%
    08:00 +17°C° 0 mm 5 mps 761 mmHg 75%
    09:00 +20°C° 0 mm 6 mps 761 mmHg 69%
    10:00 +21°C° 0 mm 6 mps 761 mmHg 65%
    11:00 +21°C° 0 mm 6 mps 761 mmHg 61%
    12:00 +22°C° 0 mm 6 mps 761 mmHg 57%
    13:00 +22°C° 0 mm 5 mps 761 mmHg 58%
    14:00 +22°C° 0 mm 5 mps 761 mmHg 59%
    15:00 +22°C° 0 mm 5 mps 761 mmHg 60%
    16:00 +21°C° 0 mm 4 mps 761 mmHg 63%
    17:00 +20°C° 0 mm 4 mps 761 mmHg 67%
    18:00 +20°C° 0 mm 4 mps 761 mmHg 70%
    19:00 +18°C° 0 mm 3 mps 761 mmHg 74%
    20:00 +17°C° 0 mm 3 mps 761 mmHg 77%
    21:00 +16°C° 0 mm 3 mps 761 mmHg 81%
    22:00 +14°C° 0 mm 3 mps 761 mmHg 83%
    23:00 +14°C° 0 mm 3 mps 761 mmHg 86%

    25 August, Friday

    Time Temperature Precipitation Wind Pressure Humidity
    00:00 +14°C° 0 mm 3 mps 761 mmHg 88%
    01:00 +13°C° 0 mm 3 mps 760 mmHg 90%
    02:00 +13°C° 0 mm 3 mps 760 mmHg 91%
    03:00 +13°C° 0 mm 3 mps 760 mmHg 92%
    04:00 +13°C° 0 mm 3 mps 760 mmHg 91%
    05:00 +13°C° 0 mm 3 mps 760 mmHg 90%
    06:00 +14°C° 0 mm 3 mps 760 mmHg 89%
    07:00 +16°C° 0 mm 3 mps 760 mmHg 83%
    08:00 +18°C° 0 mm 4 mps 760 mmHg 76%
    09:00 +20°C° 0 mm 4 mps 760 mmHg 70%
    10:00 +21°C° 0 mm 4 mps 760 mmHg 66%
    11:00 +22°C° 0 mm 4 mps 760 mmHg 63%
    12:00 +23°C° 0 mm 4 mps 760 mmHg 59%
    13:00 +23°C° 0 mm 4 mps 760 mmHg 59%
    14:00 +23°C° 0 mm 4 mps 759 mmHg 58%
    15:00 +23°C° 0 mm 4 mps 759 mmHg 58%
    16:00 +22°C° 0 mm 3 mps 759 mmHg 62%
    17:00 +22°C° 0 mm 3 mps 759 mmHg 66%
    18:00 +21°C° 0 mm 2 mps 759 mmHg 70%
    19:00 +19°C° 0 mm 2 mps 759 mmHg 74%
    20:00 +19°C° 0 mm 1 mps 760 mmHg 78%
    21:00 +18°C° 0 mm 1 mps 760 mmHg 83%
    22:00 +18°C° 0 mm 1 mps 760 mmHg 84%
    23:00 +16°C° 0 mm 1 mps 760 mmHg 85%

    26 August, Saturday

    Time Temperature Precipitation Wind Pressure Humidity
    00:00 +16°C° 0 mm 1 mps 760 mmHg 86%
    01:00 +16°C° 0 mm 2 mps 760 mmHg 87%
    02:00 +16°C° 0 mm 2 mps 760 mmHg 87%
    03:00 +15°C° 0 mm 2 mps 760 mmHg 88%
    04:00 +16°C° 0 mm 2 mps 760 mmHg 87%
    05:00 +16°C° 0 mm 2 mps 760 mmHg 87%
    06:00 +16°C° 0 mm 2 mps 760 mmHg 86%
    07:00 +17°C° 0 mm 2 mps 760 mmHg 80%
    08:00 +19°C° 0 mm 2 mps 760 mmHg 73%
    09:00 +20°C° 0 mm 2 mps 760 mmHg 67%
    10:00 +21°C° 0 mm 3 mps 760 mmHg 63%
    11:00 +22°C° 0 mm 3 mps 760 mmHg 60%
    12:00 +24°C° 0 mm 3 mps 760 mmHg 57%
    13:00 +24°C° 0 mm 3 mps 760 mmHg 57%
    14:00 +25°C° 0 mm 3 mps 760 mmHg 57%
    15:00 +25°C° 0 mm 3 mps 760 mmHg 58%
    16:00 +24°C° 0 mm 2 mps 760 mmHg 63%
    17:00 +23°C° 0 mm 2 mps 760 mmHg 67%
    18:00 +21°C° 0 mm 2 mps 761 mmHg 72%
    19:00 +19°C° 0 mm 2 mps 761 mmHg 76%
    20:00 +18°C° 0 mm 2 mps 761 mmHg 80%
    21:00 +18°C° 0 mm 1 mps 761 mmHg 84%
    22:00 +16°C° 0 mm 1 mps 761 mmHg 85%
    23:00 +16°C° 0 mm 1 mps 761 mmHg 86%
    Show more